Regional Weather Roundup
Issued by NWS

Home | Current Version | Previous Version | Text Only | Print | Product List | Glossary On
Versions: 1 2 3 4 5 6 7 8 9 10 11 12 13 14 15 16 17 18 19 20 21 22 23 24 25 26 27 28 29 30 31 32 33 34 35 36 37 38 39 40 41 42 43 44 45 46 47 48 49 50
000
ASUS45 KPSR 031200
RWRAZ

ARIZONA REGIONAL HOURLY WEATHER ROUNDUP
NATIONAL WEATHER SERVICE PHOENIX AZ
500 AM MST SUN MAY 03 2015

NOTE: FAIR INDICATES FEW OR NO CLOUDS BELOW 12,000 FEET WITH NO
SIGNIFICANT WEATHER AND/OR OBSTRUCTIONS TO VISIBILITY.

AZZ001>003-036-031300-
NORTHWEST ARIZONA

CITY           SKY/WX    TMP DP  RH WIND       PRES   REMARKS
KINGMAN        PTCLDY    56  32  40 SE7       29.90S
6HR MIN TEMP:  55; 6HR MAX TEMP:  72;

$$

AZZ004>008-015-016-018-031300-
NORTH CENTRAL ARIZONA

CITY           SKY/WX    TMP DP  RH WIND       PRES   REMARKS
GRAND CANYON   CLOUDY    37  30  75 NE3       30.08S
6HR MIN TEMP:  32; 6HR MAX TEMP:  39;

WILLIAMS       CLOUDY    52  32  46 S10G16    30.16R
PRESCOTT       CLOUDY    60  38  43 CALM      30.02F
6HR MIN TEMP:  55; 6HR MAX TEMP:  62; 6HR PCP: TRACE;

FLAGSTAFF      NOT AVBL
PAYSON         PTCLDY    57  37  47 CALM      30.06S
PAGE           MOCLDY    64  31  28 CALM      29.93S
6HR MIN TEMP:  64; 6HR MAX TEMP:  71;

$$

AZZ009>014-017-031300-
NORTHEAST ARIZONA

CITY           SKY/WX    TMP DP  RH WIND       PRES   REMARKS
WINSLOW        NOT AVBL
SAINT JOHNS    PTCLDY    45  32  60 CALM      30.05R
6HR MIN TEMP:  40; 6HR MAX TEMP:  55;

WINDOW ROCK    CLOUDY    40  37  89 CALM      30.09F
6HR MIN TEMP:  39; 6HR MAX TEMP:  48;

$$

AZZ023-031300-
GREATER PHOENIX AREA

CITY           SKY/WX    TMP DP  RH WIND       PRES   REMARKS
PHOENIX        MOCLDY    78  43  28 E5        29.82F
6HR MIN TEMP:  77; 6HR MAX TEMP:  86;

LUKE AFB       PTCLDY    74  46  36 NW7       29.82S
6HR MIN TEMP:  73; 6HR MAX TEMP:  82;

DEER VALLEY    PTCLDY    70  42  36 E6        29.85R
6HR MIN TEMP:  70; 6HR MAX TEMP:  81;

SCOTTSDALE     PTCLDY    74  42  31 CALM      29.86S
6HR MIN TEMP:  74; 6HR MAX TEMP:  84;

MESA-GATEWAY   PTCLDY    66  45  45 SE8       29.87S
$$

AZZ027-028-031300-
SOUTHWEST MARICOPA COUNTY AND PINAL COUNTY

CITY           SKY/WX    TMP DP  RH WIND       PRES   REMARKS
CASA GRANDE    CLEAR     66  37  34 CALM      29.85S
6HR MIN TEMP:  66; 6HR MAX TEMP:  77;

GILA BEND      FAIR      69  42  38 SE9       29.81R
6HR MIN TEMP:  68; 6HR MAX TEMP:  80; 6HR PCP: TRACE;

$$

AZZ503-504-507>509-031300-
SOUTHEAST ARIZONA

CITY           SKY/WX    TMP DP  RH WIND       PRES   REMARKS
TUCSON         CLEAR     63  40  42 S8        29.93S
6HR MIN TEMP:  62; 6HR MAX TEMP:  74;

DAVIS-MONTHAN  CLEAR     63  43  49 SE8       29.91S
6HR MIN TEMP:  62; 6HR MAX TEMP:  73;

NOGALES        CLEAR     53  41  63 NE5       29.98S
6HR MIN TEMP:  53; 6HR MAX TEMP:  67;

SIERRA VISTA   CLEAR     56  41  57 S3        30.03R
6HR MIN TEMP:  54; 6HR MAX TEMP:  67;

SAFFORD        PTCLDY    67  38  34 W6        29.92S
6HR MIN TEMP:  64; 6HR MAX TEMP:  78;

$$

AZZ020-021-025-026-031-031300-
SOUTHWEST ARIZONA

CITY           SKY/WX    TMP DP  RH WIND       PRES   REMARKS
YUMA           NOT AVBL
$$

CAZ031-033-041-043-047-048-061-031300-
SOUTHERN CALIFORNIA

CITY           SKY/WX    TMP DP  RH WIND       PRES   REMARKS
DOWNTOWN L.A.  PTCLDY    59  52  77 CALM      29.88S
6HR MIN TEMP:  58; 6HR MAX TEMP:  60;

L.A. AIRPORT   CLOUDY    59  53  80 N5        29.89S
6HR MIN TEMP:  57; 6HR MAX TEMP:  59;

SAN DIEGO      MOCLDY    64  52  64 CALM      29.88F
6HR MIN TEMP:  63; 6HR MAX TEMP:  65;

BURBANK        CLEAR     57  49  74 W3        29.88S
6HR MIN TEMP:  57; 6HR MAX TEMP:  63;

ONTARIO        PTCLDY    55  52  89 W3        29.88S
6HR MIN TEMP:  55; 6HR MAX TEMP:  62;

RIVERSIDE      MOCLDY    57  53  86 CALM      29.89S
6HR MIN TEMP:  56; 6HR MAX TEMP:  64;

PALM SPRINGS   CLEAR     71  39  31 SE3       29.75S
6HR MIN TEMP:  71; 6HR MAX TEMP:  87;

EL CENTRO NAS  CLEAR     68  42  38 W8        29.73R
6HR MIN TEMP:  67; 6HR MAX TEMP:  78;

IMPERIAL       CLEAR     67  50  54 CALM      29.71R
6HR MIN TEMP:  67; 6HR MAX TEMP:  79;

BLYTHE         CLEAR     71  46  40 NW5       29.75R
6HR MIN TEMP:  71; 6HR MAX TEMP:  79;

$$

NVZ020-UTZ003-031300-
SOUTHERN NEVADA-UTAH

CITY           SKY/WX    TMP DP  RH WIND       PRES   REMARKS
LAS VEGAS      NOT AVBL
SALT LAKE CITY MOCLDY    59  40  49 S7        29.87F
6HR MIN TEMP:  59; 6HR MAX TEMP:  66;

$$

NMZ009-TXZ055-031300-
NEW MEXICO-WEST TEXAS

CITY           SKY/WX    TMP DP  RH WIND       PRES   REMARKS
ALBUQUERQUE    CLOUDY    55  35  47 CALM      30.05S
6HR MIN TEMP:  53; 6HR MAX TEMP:  61;

EL PASO        PTCLDY    69  37  30 W3        29.94R
6HR MIN TEMP:  69; 6HR MAX TEMP:  81; 6HR PCP: TRACE;

$$


........................KEY........................
SKY/WX - SKY CONDITION/WEATHER
TMP    - TEMPERATURE IN FAHRENHEIT
DP     - DEW POINT IN FAHRENHEIT
RH     - RELATIVE HUMIDITY IN PERCENT
WIND   - DIRECTION AND SPEED IN MILES PER HOUR (MPH)
VRB    - VARIABLE WIND DIRECTION
PRES   - MEAN SEA LEVEL PRESSURE IN INCHES OF MERCURY
         F - FALLING PRESSURE   R - RISING PRESSURE
         S - STEADY PRESSURE
VSB    - VISIBILITY IN MILES
HX     - HEAT INDEX IN FAHRENHEIT
WCI    - WIND CHILL INDEX IN FAHRENHEIT
TC     - TEMPERATURE IN CELSIUS WHICH IS ALSO KNOWN AS
         TEMPERATURE IN CENTIGRADE
AFB    - AIR FORCE BASE
         LUKE AFB IS LUKE AIR FORCE BASE
         DAVIS-MONTHAN IS DAVIS-MONTHAN AIR FORCE BASE
NAS    - NAVAL AIR STATION
         EL CENTRO NAS IS EL CENTRO NAVAL AIR STATION
N/A    - NOT AVAILABLE



USA.gov is the U.S. government's official web portal to all federal, state and local government web resources and services.